Regional Weather Roundup
Issued by NWS Mobile, AL

Home | Current Version | Previous Version | Text Only | Print | Product List | Glossary On
Versions: 1 2 3 4 5 6 7 8 9 10 11 12 13 14 15 16 17 18 19 20 21 22 23 24 25 26 27 28 29 30 31 32 33 34 35 36 37 38 39 40 41 42 43 44 45 46 47 48 49 50
000
ASUS44 KMOB 260712
RWRMOB
REGIONAL WEATHER ROUNDUP
NATIONAL WEATHER SERVICE MOBILE AL
200 AM CDT MON SEP 26 2016

NOTE: "FAIR" INDICATES FEW OR NO CLOUDS BELOW 12,000 FEET WITH NO
      SIGNIFICANT WEATHER AND/OR OBSTRUCTIONS TO VISIBILITY.

  * THESE STATIONS ARE PART OF THE UNIVERSITY OF SOUTH ALABAMA
    MESONET AND ARE NOT UNDER NWS OR FAA QUALITY CONTROL.

ALZ061>064-260800-
COASTAL ALABAMA

CITY           SKY/WX    TMP DP  RH WIND       PRES   REMARKS
MOBILE REG APT PTCLDY    72  70  93 CALM      30.02R
BROOKLEY FIELD PTCLDY    73  72  96 W5        30.01S
USA CAMPUS*    NOT AVBL
DOG RIVER*     NOT AVBL


CITY           SKY/WX    TMP DP  RH WIND       PRES   REMARKS
MOUNT VERNON*  NOT AVBL
SARALAND*      NOT AVBL
BAY MINETTE*   NOT AVBL
LOXLEY*        NOT AVBL
ROBERTSDALE*   NOT AVBL
FAIRHOPE*      NOT AVBL
ELBERTA*       NOT AVBL
FOLEY*         NOT AVBL
GRAND BAY*     NOT AVBL
DAUPHIN ISLND* NOT AVBL
BON SCOUR NWR* NOT AVBL
GULF SHORES    PTCLDY    72  71  98 N12       29.99F

$$

ALZ051>060-260800-
INTERIOR SOUTHWEST AND SOUTH CENTRAL ALABAMA

CITY           SKY/WX    TMP DP  RH WIND       PRES   REMARKS
GREENVILLE     NOT AVBL
EVERGREEN      CLOUDY    72  70  93 CALM      30.02F
CASTLEBERRY*   NOT AVBL
ATMORE*        NOT AVBL
DIXIE*         NOT AVBL
ANDALUSIA/OPP  PTCLDY    76  69  79 CALM      30.02S
ANDALUSIA*     NOT AVBL
FLORALA APT    NOT AVBL
FLORALA*       NOT AVBL

$$

FLZ001>006-260800-
WESTERN FLORIDA PANHANDLE

CITY           SKY/WX    TMP DP  RH WIND       PRES   REMARKS
PENSACOLA      CLEAR     76  72  87 NE5       29.99F
NAS PENSACOLA  CLEAR     74  71  91 N5        29.98F
MILTON         CLEAR     69  69 100 CALM      30.00F
WHTNG S FIELD  CLEAR     73  70  90 CALM      30.00F


CITY           SKY/WX    TMP DP  RH WIND       PRES   REMARKS
WALNUT HILL*   NOT AVBL
JAY*           NOT AVBL
DUKE FIELD     CLEAR     70  68  92 E2        30.00F
CRESTVIEW      MOCLDY    71  69  93 NE3       30.03S
VALPARAISO     PTCLDY    74  65  75 E5        30.00S
DESTIN         CLEAR     79  72  79 E6        30.00S

$$

MSZ076-079-260800-
INTERIOR SOUTHEAST MISSISSIPPI

CITY           SKY/WX    TMP DP  RH WIND       PRES   REMARKS
LEAKESVILLE*   NOT AVBL
AGRICOLA*      NOT AVBL

$$

MARINE OBSERVATIONS

STATION/POSITION TIME  TEMP    WIND        PRES    WAVE
                       AIR SEA DIR/SP/G            HT/PER
                 (UTC) (F)     (DEG/KT/KT) (MB)    (FT/S)
PASCAGOULA       0600   77      30/  5/  7 1015.7F
PETIT BOIS ISLND 0600   81      30/  9/ 10 1016.4F
GRAND BAY        0545   77      10/  4     1017.0S
KATRINA CUT      0600   82      70/  7     1016.3F
CEDAR POINT      0630   81      80/  5     1015.6F
E DAUPHIN ISLAND 0600   82      80/  6/  7 1015.4F
MIDDLE BAY LIGHT 0600   80      70/  7     1015.6F
USCG MOBILE BAY  0600   77 86   20/  2/  3 1016.4F
STATE DOCKS      0600   77                 1015.8F
MEAHER PARK      0600   75      80/  3     1015.6F
WEEKS BAY        0500   74                   N/A
FORT MORGAN      0600   81      90/  5/  6 1015.2F
12 S ORANGE BCH  0650   83 86     CALM     1015.3F   0
PENSACOLA BAY    0600   79 86   10/  2/  5 1016.1S
64 S DAUPHIN ISL 0600   83 86  350/  2/  4 1015.5F
67 S FORT MORGAN 0630   82        CALM     1015.6F

$$

SELECTED LOCATIONS ACROSS THE REGION

CITY           SKY/WX    TMP DP  RH WIND       PRES   REMARKS
NEW ORLEANS    PTCLDY    79  74  84 CALM      30.00S
GULFPORT       CLEAR     75  72  90 CALM      29.99S
PASCAGOULA AP  CLEAR     71  71 100 CALM      29.99F
PASCAGOULA*    NOT AVBL
HATTIESBURG    CLEAR     71  68  90 CALM      30.01F
LAUREL         CLEAR     68  64  88 CALM      30.02F
MERIDIAN       CLEAR     72  68  87 CALM      30.01S
JACKSON        PTCLDY    70  68  93 CALM      30.00F
MONTGOMERY     CLOUDY    77  65  66 CALM      30.02F
TROY           CLOUDY    72  71  97 CALM      30.04F
KINSTON*       NOT AVBL
GENEVA*        NOT AVBL
ASHFORD*       NOT AVBL
DOTHAN         CLOUDY    73  71  93 CALM      30.06F
PANAMA CITY    NOT AVBL

$$




USA.gov is the U.S. government's official web portal to all federal, state and local government web resources and services.